This is the latest recevied weather packets stored in our database for station/object WB4ZUT. If no packets are shown the sender has not sent any weather packets the latest 10 day(s).
| Time | Temp. | Humidity | Pressure | Rain* | Wind** | Luminosity | Snow |
|---|---|---|---|---|---|---|---|
| 1777587614 | 18.33° C | 44% | 1015.6 hPa | 0 mm | - | 278 W/m² | - |
| 1777587309 | 17.78° C | 43% | 1015.4 hPa | 0 mm | - | 303 W/m² | - |
| 1777587004 | 18.33° C | 42% | 1015.7 hPa | 0 mm | - | 321 W/m² | - |
| 1777586700 | 18.89° C | 43% | 1015.5 hPa | 0 mm | - | 349 W/m² | - |
| 1777586396 | 18.89° C | 45% | 1015.4 hPa | 0 mm | - | 385 W/m² | - |
| 1777586096 | 18.89° C | 43% | 1015.7 hPa | 0 mm | - | 342 W/m² | - |
| 1777585794 | 18.89° C | 42% | 1015.6 hPa | 0 mm | - | 413 W/m² | - |
| 1777585489 | 18.33° C | 46% | 1015.8 hPa | 0 mm | - | 459 W/m² | - |
| 1777585185 | 17.78° C | 44% | 1015.7 hPa | 0 mm | - | 457 W/m² | - |
| 1777584880 | 18.89° C | 42% | 1015.7 hPa | 0 mm | - | 403 W/m² | - |
| 1777584578 | 18.89° C | 45% | 1015.6 hPa | 0 mm | - | 389 W/m² | - |
| 1777584275 | 19.44° C | 43% | 1015.8 hPa | 0 mm | - | 470 W/m² | - |
| 1777583969 | 18.89° C | 42% | 1015.7 hPa | 0 mm | - | 476 W/m² | - |
| 1777583665 | 18.89° C | 45% | 1015.8 hPa | 0 mm | - | 499 W/m² | - |
| 1777583364 | 18.89° C | 42% | 1015.8 hPa | 0 mm | - | 514 W/m² | - |
| 1777583058 | 18.33° C | 47% | 1015.8 hPa | 0 mm | - | 527 W/m² | - |
| 1777582756 | 18.89° C | 45% | 1015.8 hPa | 0 mm | - | 546 W/m² | - |
| 1777582451 | 18.33° C | 44% | 1015.9 hPa | 0 mm | - | 565 W/m² | - |
| 1777582151 | 18.33° C | 43% | 1015.8 hPa | 0 mm | - | 575 W/m² | - |
| 1777581850 | 18.33° C | 46% | 1015.9 hPa | 0 mm | - | 565 W/m² | - |
| 1777581549 | 19.44° C | 47% | 1016.3 hPa | 0 mm | - | 544 W/m² | - |
| 1777581244 | 18.89° C | 42% | 1016.2 hPa | 0 mm | - | 567 W/m² | - |
| 1777580939 | 18.33° C | 44% | 1016.1 hPa | 0 mm | - | 596 W/m² | - |
| 1777580634 | 18.33° C | 45% | 1016.5 hPa | 0 mm | - | 643 W/m² | - |
| 1777580329 | 18.89° C | 43% | 1016.5 hPa | 0 mm | - | 655 W/m² | - |
* Rain latest hour (hover to see other rain measurements)
** Current wind speed in m/s (hover to see current wind gust speed)